Location: Asheville, NC
(35.6000°N, 82.5500°W)
Time: 23:23:18
(UTC-04:00)

RS-15 - Pass Details

Date: 08 January 2018
Orbit: 1890 x 2154 km, 64.8° (Epoch: 17 June)

Event Time Altitude Azimuth Distance (km) Brightness Sun altitude
Rises 17:58:05 0° 329° (NNW) 5,602 10.5 -5.3°
Reaches altitude 10° 18:02:27 10° 341° (NNW) 4,562 9.9 -6.1°
Maximum altitude 18:12:12 29° 38° (NE) 3,213 8.7 -7.9°
Drops below altitude 10° 18:21:30 10° 94° (E) 4,373 9.3 -9.7°
Enters shadow 18:24:28 - 103° (ESE) 5,075 9.7 -10.2°
